Location: Gand�
(15.0971°N, 12.6564°W)
Time: 15:03:22
(UTC+00:00)

Nadezhda 2 Rocket - Pass Details

Date: 07 August 2020
Orbit: 947 x 1012 km, 83.0° (Epoch: 20 September)

Event Time Altitude Azimuth Distance (km) Brightness Sun altitude
Rises 04:42:41 0° 352° (N) 3,645 7.7 -25.9°
Reaches altitude 10° 04:45:12 10° 351° (N) 2,689 7.0 -25.4°
Maximum altitude 04:51:18 73° 268° (W) 994 4.3 -24.1°
Enters shadow 04:54:32 29° 189° (S) 1,653 5.4 -23.4°
